Time,TemperatureF,DewpointF,PressureIn,WindDirection,WindDirectionDegrees,WindSpeedMPH,WindSpeedGustMPH,Humidity,HourlyPrecipIn,Conditions,Clouds,dailyrainin,SoftwareType,DateUTC
2013-09-12 00:24:00,74.0,73.0,30.00,East,81,0.0,0.0,96,0.00,,,0.79,,2013-09-12 04:24:00,
2013-09-12 00:54:00,74.0,73.0,30.00,East,81,0.0,0.0,97,0.00,,,0.79,,2013-09-12 04:54:00,
2013-09-12 01:23:00,73.0,72.0,30.00,East,81,0.0,0.0,97,0.00,,,0.79,,2013-09-12 05:23:00,
2013-09-12 01:53:00,73.0,72.0,29.98,East,81,0.0,0.0,97,0.00,,,0.79,,2013-09-12 05:53:00,
2013-09-12 02:22:00,73.0,72.0,29.97,East,81,0.0,0.0,97,0.00,,,0.79,,2013-09-12 06:22:00,
2013-09-12 02:52:00,73.0,72.0,29.97,East,81,0.0,0.0,98,0.00,,,0.79,,2013-09-12 06:52:00,
2013-09-12 03:22:00,73.0,72.0,29.97,East,81,0.0,0.0,98,0.00,,,0.79,,2013-09-12 07:22:00,
2013-09-12 03:52:00,73.0,72.0,29.96,East,81,0.0,0.0,97,0.00,,,0.79,,2013-09-12 07:52:00,
2013-09-12 04:22:00,73.0,72.0,29.95,East,81,0.0,0.0,98,0.00,,,0.79,,2013-09-12 08:22:00,
2013-09-12 04:52:00,72.0,71.0,29.95,East,81,0.0,0.0,98,0.00,,,0.61,,2013-09-12 08:52:00,
2013-09-12 05:21:00,72.0,71.0,29.96,East,81,0.0,0.0,98,0.00,,,0.61,,2013-09-12 09:21:00,
2013-09-12 05:53:00,72.0,71.0,29.96,East,81,0.0,0.0,98,0.00,,,0.61,,2013-09-12 09:53:00,
2013-09-12 06:23:00,72.0,71.0,29.96,East,81,0.0,0.0,98,0.00,,,0.61,,2013-09-12 10:23:00,
2013-09-12 06:53:00,72.0,71.0,29.97,East,81,0.0,0.0,98,0.00,,,0.61,,2013-09-12 10:53:00,
2013-09-12 07:22:00,72.0,71.0,29.97,East,81,0.0,0.0,98,0.00,,,0.60,,2013-09-12 11:22:00,
2013-09-12 07:52:00,72.0,71.0,29.98,East,81,0.0,0.0,98,0.00,,,0.60,,2013-09-12 11:52:00,
2013-09-12 08:22:00,73.0,72.0,29.98,East,81,0.0,0.0,98,0.00,,,0.60,,2013-09-12 12:22:00,
2013-09-12 08:52:00,75.0,75.0,29.98,East,81,0.0,0.0,99,0.00,,,0.60,,2013-09-12 12:52:00,
2013-09-12 09:22:00,76.0,76.0,29.99,East,81,0.0,0.0,99,0.00,,,0.60,,2013-09-12 13:22:00,
2013-09-12 09:52:00,78.0,77.0,29.99,ENE,78,0.0,0.0,98,0.00,,,0.60,,2013-09-12 13:52:00,
2013-09-12 10:22:00,80.0,78.0,30.00,ENE,76,0.0,0.0,93,0.00,,,0.48,,2013-09-12 14:22:00,
2013-09-12 10:52:00,77.0,74.0,30.01,SE,141,3.0,8.0,89,0.15,,,0.62,,2013-09-12 14:52:00,
2013-09-12 11:22:00,75.0,74.0,30.00,East,83,1.0,3.0,96,0.62,,,1.09,,2013-09-12 15:22:00,
2013-09-12 11:54:00,76.0,74.0,29.99,ESE,115,0.0,0.0,95,0.48,,,1.10,,2013-09-12 15:54:00,
2013-09-12 12:23:00,77.0,74.0,30.00,East,94,3.0,6.0,92,0.02,,,0.95,,2013-09-12 16:23:00,
2013-09-12 12:53:00,78.0,75.0,29.98,SE,134,0.0,0.0,91,0.01,,,0.64,,2013-09-12 16:53:00,
2013-09-12 13:23:00,78.0,74.0,29.96,SSE,155,1.0,3.0,88,0.00,,,0.64,,2013-09-12 17:23:00,
2013-09-12 13:54:00,81.0,75.0,29.96,South,177,0.0,3.0,83,0.00,,,0.64,,2013-09-12 17:54:00,
2013-09-12 14:22:00,80.0,75.0,29.96,SW,229,0.0,0.0,85,0.00,,,0.64,,2013-09-12 18:22:00,
2013-09-12 14:52:00,79.0,75.0,29.95,SSE,164,1.0,3.0,87,0.00,,,0.64,,2013-09-12 18:52:00,
2013-09-12 15:22:00,79.0,74.0,29.92,SSE,158,0.0,0.0,84,0.00,,,0.64,,2013-09-12 19:22:00,
2013-09-12 15:52:00,79.0,74.0,29.93,SE,134,0.0,0.0,84,0.00,,,0.64,,2013-09-12 19:52:00,
2013-09-12 16:22:00,80.0,75.0,29.91,ENE,70,2.0,7.0,84,0.00,,,0.64,,2013-09-12 20:22:00,
2013-09-12 16:52:00,81.0,75.0,29.91,East,93,1.0,5.0,81,0.00,,,0.64,,2013-09-12 20:52:00,
2013-09-12 17:22:00,82.0,74.0,29.89,ESE,103,0.0,5.0,78,0.00,,,0.64,,2013-09-12 21:22:00,
2013-09-12 17:54:00,81.0,75.0,29.89,ESE,115,0.0,3.0,81,0.00,,,0.64,,2013-09-12 21:54:00,
2013-09-12 18:24:00,80.0,75.0,29.89,East,101,0.0,0.0,84,0.00,,,0.64,,2013-09-12 22:24:00,
2013-09-12 18:54:00,79.0,75.0,29.89,East,90,0.0,0.0,87,0.00,,,0.64,,2013-09-12 22:54:00,
2013-09-12 19:23:00,79.0,75.0,29.91,East,94,0.0,0.0,87,0.00,,,0.64,,2013-09-12 23:23:00,
2013-09-12 19:53:00,78.0,74.0,29.90,East,94,0.0,0.0,89,0.00,,,0.64,,2013-09-12 23:53:00,
2013-09-12 20:22:00,77.0,74.0,29.89,East,98,0.0,0.0,91,0.00,,,0.64,,2013-09-13 00:22:00,
2013-09-12 20:52:00,77.0,75.0,29.91,SW,216,0.0,0.0,93,0.00,,,0.64,,2013-09-13 00:52:00,
2013-09-12 21:22:00,76.0,74.0,29.91,WSW,242,0.0,0.0,93,0.00,,,0.64,,2013-09-13 01:22:00,
2013-09-12 21:53:00,76.0,74.0,29.92,WSW,242,0.0,0.0,94,0.00,,,0.64,,2013-09-13 01:53:00,
2013-09-12 22:22:00,75.0,73.0,29.92,WSW,242,0.0,0.0,95,0.00,,,0.64,,2013-09-13 02:22:00,
2013-09-12 22:53:00,74.0,72.0,29.92,WSW,242,0.0,0.0,95,0.00,,,0.64,,2013-09-13 02:53:00,
2013-09-12 23:22:00,74.0,72.0,29.91,WSW,242,0.0,0.0,95,0.00,,,0.64,,2013-09-13 03:22:00,
2013-09-12 23:55:00,73.0,72.0,29.91,WSW,242,0.0,0.0,96,0.00,,,0.64,,2013-09-13 03:55:00,